Flag for Canada Weather past 2 weeks in Conception Bay South, Newfoundland and Labrador, Canada

Now
32 °F

Partly sunny.


Feels Like: 20 °F
Forecast: 33 / 36 °F
Wind: 20 mph from Northeast

Location: St. John's

Current Time: Dec 20, 2014 at 3:40:53 PM

Latest Report: Dec 20, 2014 at 2:30 PM


Visibility: 15 mi

Pressure: 30.10 "Hg

Humidity: 80%

Dew point: 27 °F

Location of Conception Bay SouthLocation

Historic Weather in Conception Bay South — Graph

°F

Conception Bay South temperature yesterday

Maximum temperature yesterday: 46 °F (at 5:30 AM)
Minimum temperature yesterday: 32 °F (at 11:30 PM)
Average temperature yesterday: 40 °F

Past Weeks' High & Low Weather Summary

 TemperatureHumidityPressure
High54 °F (Dec 13, 11:30 AM)100% (Dec 7, 6:30 PM)30.82 "Hg (Dec 7, 6:30 PM)
Low12 °F (Dec 8, 6:30 AM)57% (Dec 8, 1:30 PM)29.35 "Hg (Dec 19, 5:30 AM)
Average36 °F90%30.12 "Hg
* Reported Dec 5 2:30 PM — Dec 20 2:30 PM, Conception Bay South, Weather by CustomWeather, © 2014

Note: Actual official high and low records may vary slightly from our data, if they occured in-between our weather recording intervals... More about our weather records

Advertising

Conception Bay South weather history for previous 24 hours

 ConditionsComfort  
Time TempWeatherWind HumidityBarometerVisibility
2:30 PM
Dec 20
32 °FPartly sunny.20 mph80%30.10 "Hg15 mi
1:30 PM32 °FPartly sunny.21 mph87%30.09 "Hg15 mi
12:30 PM34 °FPartly sunny.23 mph81%30.08 "Hg15 mi
11:30 AM34 °FPartly sunny.21 mph81%30.10 "Hg15 mi
10:30 AM32 °FPartly sunny.22 mph80%30.10 "Hg15 mi
9:30 AM32 °FBroken clouds.22 mph80%30.07 "Hg15 mi
8:30 AM32 °FOvercast.20 mph87%30.06 "Hg15 mi
7:30 AM32 °FOvercast.21 mph87%30.03 "Hg15 mi
6:30 AM32 °FOvercast.18 mph87%30.01 "Hg15 mi
5:30 AM32 °FSnow flurries. Overcast.20 mph87%29.95 "Hg15 mi
4:30 AM32 °FSnow flurries. Low clouds.20 mph93%29.92 "Hg15 mi
3:30 AM32 °FSnow flurries. Low clouds.13 mph93%29.93 "Hg15 mi
2:30 AM32 °FOvercast.10 mph93%29.89 "Hg15 mi
1:30 AM32 °FMostly cloudy.10 mph93%29.84 "Hg15 mi
12:30 AM32 °FSnow flurries. Overcast.7 mph93%29.81 "Hg10 mi
11:30 PM
Dec 19
32 °FSnow flurries. Low clouds.12 mph93%29.77 "Hg10 mi
10:30 PM36 °FOvercast.15 mph87%29.71 "Hg15 mi
9:30 PM36 °FPassing clouds.17 mph87%29.68 "Hg15 mi
8:30 PM36 °FPassing clouds.23 mph87%29.65 "Hg15 mi
7:30 PM36 °FOvercast.23 mph93%29.61 "Hg15 mi
6:30 PM36 °FPassing clouds.21 mph93%29.58 "Hg15 mi
5:30 PM36 °FOvercast.21 mph93%29.56 "Hg15 mi
4:30 PM37 °FPassing clouds.21 mph87%29.53 "Hg15 mi
3:30 PM37 °FPartly sunny.22 mph93%29.52 "Hg15 mi
Weather by CustomWeather, © 2014

See weather overviewHow to use our weather pages